| time (UTC) | temp F | wind direction | speed MPH | gust MPH | rain 1hr in | rain 24hr in | rain mn in | humidity % | barometer mb |
| 20260506200056 | 62 | 207 | 4.0 | 14.0 | 0.00 | 0.00 | 0.00 | 26 | 1011.0 |
| 20260506194553 | 61 | 227 | 3.0 | 12.0 | 0.00 | 0.00 | 0.00 | 25 | 1011.3 |
| 20260506193050 | 60 | 247 | 2.0 | 12.0 | 0.00 | 0.00 | 0.00 | 27 | 1011.7 |
| 20260506191551 | 62 | 202 | 6.0 | 16.0 | 0.00 | 0.00 | 0.00 | 30 | 1011.9 |
| 20260506190049 | 59 | 220 | 1.0 | 9.0 | 0.00 | 0.00 | 0.00 | 26 | 1012.4 |
| 20260506184553 | 60 | 167 | 2.0 | 12.0 | 0.00 | 0.00 | 0.00 | 26 | 1012.6 |
| 20260506183041 | 60 | 175 | 6.0 | 11.0 | 0.00 | 0.00 | 0.00 | 29 | 1012.8 |
| 20260506181538 | 58 | 215 | 5.0 | 14.0 | 0.00 | 0.00 | 0.00 | 27 | 1013.1 |
| 20260506180037 | 58 | 206 | 3.0 | 11.0 | 0.00 | 0.00 | 0.00 | 27 | 1013.3 |
| 20260506174532 | 57 | 144 | 6.0 | 9.0 | 0.00 | 0.00 | 0.00 | 28 | 1013.6 |
| 20260506173036 | 57 | 159 | 5.0 | 11.0 | 0.00 | 0.00 | 0.00 | 29 | 1013.9 |
| 20260506171524 | 55 | 243 | 7.0 | 13.0 | 0.00 | 0.00 | 0.00 | 29 | 1014.3 |
| 20260506170121 | 55 | 228 | 5.0 | 11.0 | 0.00 | 0.00 | 0.00 | 30 | 1014.5 |
| 20260506164518 | 55 | 210 | 7.0 | 11.0 | 0.00 | 0.00 | 0.00 | 31 | 1014.6 |
| 20260506163036 | 55 | 192 | 8.0 | 12.0 | 0.00 | 0.00 | 0.00 | 32 | 1014.9 |
| 20260506161515 | 54 | 191 | 8.0 | 15.0 | 0.00 | 0.00 | 0.00 | 34 | 1015.3 |
| 20260506160010 | 53 | 197 | 8.0 | 15.0 | 0.00 | 0.00 | 0.00 | 34 | 1015.5 |
| 20260506154524 | 52 | 233 | 8.0 | 16.0 | 0.00 | 0.00 | 0.00 | 35 | 1015.7 |
| 20260506153002 | 52 | 185 | 8.0 | 13.0 | 0.00 | 0.00 | 0.00 | 35 | 1016.0 |
| 20260506151558 | 50 | 184 | 8.0 | 14.0 | 0.00 | 0.00 | 0.00 | 36 | 1016.2 |
| 20260506150055 | 49 | 188 | 8.0 | 13.0 | 0.00 | 0.00 | 0.00 | 38 | 1016.4 |
| 20260506144550 | 45 | 294 | 2.0 | 5.0 | 0.00 | 0.00 | 0.00 | 50 | 1016.7 |
| 20260506143046 | 43 | 296 | 4.0 | 7.0 | 0.00 | 0.00 | 0.00 | 52 | 1016.9 |
| 20260506141541 | 41 | 296 | 4.0 | 7.0 | 0.00 | 0.00 | 0.00 | 55 | 1017.2 |
| 20260506140038 | 38 | 298 | 3.0 | 5.0 | 0.00 | 0.00 | 0.00 | 62 | 1017.3 |
| 20260506134533 | 34 | 299 | 3.0 | 5.0 | 0.00 | 0.00 | 0.00 | 68 | 1017.5 |
| 20260506133029 | 32 | 299 | 3.0 | 5.0 | 0.00 | 0.00 | 0.00 | 71 | 1017.8 |
| 20260506131531 | 30 | 299 | 5.0 | 10.0 | 0.00 | 0.00 | 0.00 | 72 | 1017.9 |
| 20260506130020 | 29 | 306 | 6.0 | 9.0 | 0.00 | 0.00 | 0.00 | 77 | 1018.0 |
| 20260506124516 | 26 | 309 | 4.0 | 8.0 | 0.00 | 0.00 | 0.00 | 82 | 1018.0 |
| 20260506123012 | 23 | 311 | 4.0 | 6.0 | 0.00 | 0.00 | 0.00 | 85 | 1018.1 |
| 20260506121509 | 22 | 311 | 1.0 | 4.0 | 0.00 | 0.00 | 0.00 | 84 | 1018.2 |
| 20260506120011 | 21 | 311 | 2.0 | 4.0 | 0.00 | 0.00 | 0.00 | 83 | 1018.3 |
| 20260506114505 | 20 | 311 | 2.0 | 4.0 | 0.00 | 0.00 | 0.00 | 80 | 1018.3 |
| 20260506113003 | 20 | 311 | 3.0 | 5.0 | 0.00 | 0.00 | 0.00 | 78 | 1018.3 |
| 20260506111501 | 22 | 311 | 3.0 | 6.0 | 0.00 | 0.00 | 0.00 | 79 | 1018.6 |
| 20260506110105 | 23 | 311 | 8.0 | 10.0 | 0.00 | 0.00 | 0.00 | 79 | 1018.9 |
| 20260506104608 | 23 | 325 | 4.0 | 8.0 | 0.00 | 0.00 | 0.00 | 82 | 1018.8 |
| 20260506103105 | 23 | 326 | 4.0 | 6.0 | 0.00 | 0.00 | 0.00 | 83 | 1019.0 |
| 20260506101618 | 22 | 327 | 2.0 | 5.0 | 0.00 | 0.00 | 0.00 | 84 | 1019.1 |
| 20260506100055 | 20 | 327 | 4.0 | 6.0 | 0.00 | 0.00 | 0.00 | 81 | 1019.3 |
| 20260506094557 | 21 | 327 | 2.0 | 5.0 | 0.00 | 0.00 | 0.00 | 82 | 1019.3 |
| 20260506093057 | 21 | 327 | 3.0 | 6.0 | 0.00 | 0.00 | 0.00 | 82 | 1019.6 |
| 20260506091548 | 20 | 327 | 4.0 | 6.0 | 0.00 | 0.00 | 0.00 | 81 | 1019.8 |
| 20260506090059 | 20 | 328 | 3.0 | 5.0 | 0.00 | 0.00 | 0.00 | 79 | 1019.7 |
| 20260506084545 | 21 | 329 | 5.0 | 6.0 | 0.00 | 0.00 | 0.00 | 79 | 1020.0 |
| 20260506083038 | 23 | 330 | 5.0 | 6.0 | 0.00 | 0.00 | 0.00 | 78 | 1019.9 |
| 20260506081540 | 22 | 331 | 5.0 | 6.0 | 0.00 | 0.00 | 0.00 | 76 | 1020.0 |
| 20260506073027 | 24 | 335 | 4.0 | 6.0 | 0.00 | 0.00 | 0.00 | 73 | 1020.5 |
| 20260506071525 | 25 | 335 | 4.0 | 8.0 | 0.00 | 0.00 | 0.00 | 69 | 1020.5 |
| 20260506061514 | 25 | 12 | 1.0 | 3.0 | 0.00 | 0.00 | 0.00 | 66 | 1020.6 |
| 20260506044513 | 31 | 16 | 0.0 | 4.0 | 0.00 | 0.00 | 0.00 | 63 | 1020.8 |
| 20260506043004 | 33 | 16 | 0.0 | 2.0 | 0.00 | 0.00 | 0.00 | 56 | 1020.7 |
| 20260506041504 | 34 | 16 | 0.0 | 3.0 | 0.00 | 0.00 | 0.00 | 52 | 1020.6 |
| 20260506040004 | 34 | 16 | 4.0 | 7.0 | 0.00 | 0.00 | 0.00 | 51 | 1020.6 |
| 20260506034504 | 36 | 13 | 3.0 | 4.0 | 0.00 | 0.00 | 0.00 | 49 | 1020.7 |
| 20260506033002 | 37 | 13 | 2.0 | 4.0 | 0.00 | 0.00 | 0.00 | 49 | 1020.7 |
| 20260506031503 | 39 | 12 | 0.0 | 3.0 | 0.00 | 0.00 | 0.00 | 46 | 1020.5 |
| 20260506030001 | 41 | 12 | 2.0 | 4.0 | 0.00 | 0.00 | 0.00 | 44 | 1020.5 |
| 20260506024501 | 42 | 12 | 2.0 | 4.0 | 0.00 | 0.00 | 0.00 | 44 | 1020.5 |
| 20260506023112 | 43 | 12 | 3.0 | 5.0 | 0.00 | 0.00 | 0.00 | 43 | 1020.4 |
| 20260506021605 | 45 | 13 | 4.0 | 9.0 | 0.00 | 0.00 | 0.00 | 40 | 1020.4 |
| 20260506020100 | 47 | 13 | 6.0 | 9.0 | 0.00 | 0.00 | 0.00 | 37 | 1020.3 |
| 20260506014559 | 47 | 12 | 6.0 | 12.0 | 0.00 | 0.00 | 0.00 | 35 | 1020.3 |
| 20260506013104 | 48 | 5 | 4.0 | 14.0 | 0.00 | 0.00 | 0.00 | 34 | 1020.3 |
| 20260506011606 | 49 | 355 | 7.0 | 16.0 | 0.00 | 0.00 | 0.00 | 33 | 1020.2 |
| 20260506010058 | 50 | 5 | 5.0 | 15.0 | 0.00 | 0.00 | 0.00 | 32 | 1020.3 |
| 20260506004600 | 51 | 346 | 10.0 | 14.0 | 0.00 | 0.00 | 0.00 | 32 | 1020.3 |
| 20260506003056 | 49 | 360 | 10.0 | 19.0 | 0.00 | 0.00 | 0.00 | 34 | 1020.4 |
| 20260506001559 | 49 | 25 | 9.0 | 17.0 | 0.00 | 0.00 | 0.00 | 34 | 1020.4 |
| 20260505234555 | 48 | 5 | 11.0 | 16.0 | 0.00 | 0.00 | 0.00 | 33 | 1020.5 |
| 20260505233057 | 51 | 329 | 14.0 | 19.0 | 0.00 | 0.00 | 0.00 | 32 | 1020.5 |
| 20260505231553 | 51 | 5 | 9.0 | 19.0 | 0.00 | 0.00 | 0.00 | 33 | 1020.6 |
| 20260505230118 | 50 | 321 | 11.0 | 17.0 | 0.00 | 0.00 | 0.00 | 35 | 1020.6 |
| 20260505224552 | 48 | 321 | 12.0 | 17.0 | 0.00 | 0.00 | 0.00 | 34 | 1020.8 |
| 20260505223050 | 50 | 5 | 6.0 | 21.0 | 0.00 | 0.00 | 0.00 | 35 | 1020.8 |
| 20260505221556 | 49 | 17 | 11.0 | 22.0 | 0.00 | 0.00 | 0.00 | 33 | 1020.8 |
| 20260505220055 | 50 | 27 | 12.0 | 20.0 | 0.00 | 0.00 | 0.00 | 33 | 1020.9 |
| 20260505214549 | 48 | 5 | 10.0 | 18.0 | 0.00 | 0.00 | 0.00 | 36 | 1021.0 |
| 20260505213048 | 49 | 336 | 12.0 | 18.0 | 0.00 | 0.00 | 0.00 | 35 | 1021.0 |
| 20260505211558 | 50 | 28 | 11.0 | 21.0 | 0.00 | 0.00 | 0.00 | 37 | 1021.1 |
| 20260505210048 | 51 | 33 | 13.0 | 18.0 | 0.00 | 0.00 | 0.00 | 34 | 1021.2 |
| 20260505204544 | 50 | 9 | 10.0 | 19.0 | 0.00 | 0.00 | 0.00 | 37 | 1021.3 |
| 20260505203043 | 48 | 15 | 11.0 | 17.0 | 0.00 | 0.00 | 0.00 | 36 | 1021.4 |
| 20260505201545 | 48 | 44 | 8.0 | 19.0 | 0.00 | 0.00 | 0.00 | 36 | 1021.4 |